CW4352 Weather Reports


time (UTC)temp
C
wind
direction
speed
KPH
gust
KPH
rain 1hr
cm
rain 24hr
cm
rain mn
cm
humidity
%
barometer
mb
20260902134205 31 36 1.6 4.8 0.00 0.03 0.00 39 1012.2
20260902133206 31 48 3.2 4.8 0.00 0.03 0.00 42 1012.2
20260902123205 30 22 3.2 9.7 0.00 0.03 0.00 49 1012.9
20260902120705 30 11 1.6 12.9 0.00 0.03 0.00 50 1013.2
20260902114705 30 22 3.2 4.8 0.00 0.03 0.00 51 1012.3
20260902114205 30 39 3.2 9.7 0.00 0.03 0.00 51 1012.3
20260902113706 30 36 3.2 4.8 0.00 0.03 0.00 52 1012.3
20260902111204 30 14 1.6 4.8 0.00 0.03 0.00 52 1013.7
20260902110704 30 23 1.6 8.0 0.00 0.03 0.00 53 1013.7
20260902104704 29 49 3.2 8.0 0.00 0.03 0.00 55 1014.0
20260902104204 28 22 3.2 8.0 0.00 0.03 0.00 58 1014.0
20260902103204 28 49 3.2 8.0 0.00 0.03 0.00 58 1014.0
20260902101704 28 34 1.6 4.8 0.00 0.03 0.00 61 1014.3
20260902101204 28 40 1.6 4.8 0.00 0.03 0.00 61 1014.3
20260902100704 28 5 1.6 4.8 0.00 0.03 0.00 61 1014.3
20260902094705 28 10 3.2 8.0 0.00 0.03 0.00 63 1014.3
20260902093204 27 18 3.2 9.7 0.00 0.03 0.00 65 1014.3
20260902091704 27 0 1.6 4.8 0.00 0.03 0.00 65 1014.6
20260902090204 27 17 3.2 9.7 0.00 0.03 0.00 65 1014.6
20260902084705 27 28 3.2 8.0 0.00 0.03 0.00 63 1014.5
20260902081704 26 8 3.2 4.8 0.00 0.03 0.00 63 1014.3
20260902081204 26 323 1.6 4.8 0.00 0.03 0.00 62 1014.3
20260902080205 26 313 1.6 4.8 0.00 0.03 0.00 61 1014.3
20260902074204 26 313 0.0 3.2 0.00 0.03 0.00 62 1014.3
20260902073704 25 313 0.0 3.2 0.00 0.03 0.00 62 1014.3
20260902073204 25 313 0.0 3.2 0.00 0.03 0.00 63 1014.3
20260902071705 24 313 0.0 3.2 0.00 0.03 0.00 65 1013.9
20260902071204 24 313 0.0 0.0 0.00 0.03 0.00 65 1013.9
20260902063705 22 313 0.0 1.6 0.00 0.03 0.00 72 1013.8
20260902061705 21 313 0.0 0.0 0.00 0.03 0.00 74 1013.8
20260902054705 20 313 0.0 0.0 0.00 0.03 0.00 77 1013.6
20260902053205 20 313 1.6 4.8 0.00 0.03 0.00 76 1013.5
20260902051205 20 316 0.0 1.6 0.00 0.03 0.00 78 1013.2
20260902050704 20 316 0.0 3.2 0.00 0.03 0.00 78 1013.2
20260902050204 20 316 1.6 4.8 0.00 0.03 0.00 78 1013.2
20260902044204 20 316 0.0 1.6 0.00 0.03 0.00 76 1013.3
20260902043705 20 316 0.0 4.8 0.00 0.03 0.00 76 1013.3
20260902043204 20 316 3.2 4.8 0.00 0.03 0.00 75 1013.3
20260902041704 20 316 4.8 8.0 0.00 0.03 0.00 75 1013.3
20260902041204 20 316 3.2 4.8 0.00 0.03 0.00 76 1013.2
20260902040705 20 316 3.2 4.8 0.00 0.03 0.00 76 1013.2
20260902040204 20 316 3.2 4.8 0.00 0.03 0.00 76 1013.2
20260902030704 20 316 3.2 4.8 0.00 0.03 0.00 81 1013.2
20260902030204 20 316 3.2 4.8 0.00 0.03 0.00 81 1013.2
20260902024704 21 316 3.2 4.8 0.00 0.03 0.00 81 1013.2
20260902023204 21 316 4.8 8.0 0.00 0.03 0.00 80 1013.1
20260902021704 21 316 3.2 4.8 0.00 0.03 0.00 80 1013.1
20260902021204 21 316 3.2 4.8 0.00 0.03 0.00 80 1013.1
20260902013704 21 316 3.2 4.8 0.00 0.03 0.00 83 1013.1
20260902010205 21 316 0.0 4.8 0.00 0.03 0.00 85 1013.1
20260902004704 21 316 3.2 4.8 0.00 0.03 0.00 85 1013.1
20260902001704 21 316 3.2 8.0 0.00 0.03 0.00 85 1013.2
20260902001204 21 316 4.8 4.8 0.00 0.03 0.00 85 1013.2
20260902000704 21 316 4.8 8.0 0.00 0.03 0.00 85 1013.2
20260902000204 21 316 3.2 4.8 0.00 0.03 0.00 85 1013.2
20260901234704 22 316 1.6 4.8 0.00 0.03 0.00 85 1013.2
20260901231705 22 316 1.6 3.2 0.00 0.03 0.00 84 1012.3
20260901224204 22 316 1.6 4.8 0.00 0.03 0.00 86 1013.1
20260901223204 22 316 1.6 4.8 0.00 0.03 0.00 86 1013.1
20260901221704 22 316 0.0 0.0 0.00 0.03 0.00 84 1013.1
20260901221204 22 316 0.0 0.0 0.00 0.03 0.00 84 1013.1
20260901220705 22 316 0.0 1.6 0.00 0.03 0.00 84 1013.1
20260901213204 23 316 0.0 4.8 0.00 0.03 0.03 84 1013.0
20260901211704 23 316 1.6 4.8 0.00 0.03 0.03 83 1013.0
20260901211204 23 316 1.6 3.2 0.00 0.03 0.03 83 1013.0
20260901210204 23 316 1.6 4.8 0.00 0.03 0.03 83 1012.9
20260901203204 23 316 1.6 4.8 0.00 0.03 0.03 76 1012.8
20260901201204 24 316 0.0 0.0 0.00 0.03 0.03 73 1012.6
20260901194704 25 316 0.0 1.6 0.00 0.03 0.03 72 1012.6
20260901193706 25 316 1.6 3.2 0.00 0.03 0.03 67 1012.6
20260901190704 26 39 1.6 3.2 0.00 0.03 0.03 59 1011.9
20260901184704 26 39 1.6 4.8 0.00 0.03 0.03 55 1011.9
20260901181704 27 40 1.6 3.2 0.03 0.03 0.03 55 1011.1
20260901180204 27 42 1.6 4.8 0.03 0.03 0.03 55 1011.1
20260901174204 28 43 1.6 3.2 0.03 0.03 0.03 56 1011.1
20260901173704 28 45 0.0 1.6 0.03 0.03 0.03 57 1011.1
20260901173203 28 45 0.0 11.3 0.03 0.03 0.03 57 1011.2
20260901170704 28 43 1.6 8.0 0.00 0.00 0.00 52 1011.1
20260901170204 29 46 3.2 8.0 0.00 0.00 0.00 51 1011.1
20260901164704 30 89 1.6 8.0 0.00 0.00 0.00 49 1010.8
20260901164203 30 44 1.6 4.8 0.00 0.00 0.00 49 1010.8
20260901161204 30 32 3.2 4.8 0.00 0.00 0.00 42 1011.1
20260901160203 31 46 1.6 19.3 0.00 0.00 0.00 42 1011.1
20260901154203 31 17 3.2 8.0 0.00 0.00 0.00 44 1011.1
20260901151704 31 20 3.2 12.9 0.00 0.00 0.00 41 1011.1
20260901150203 31 8 3.2 8.0 0.00 0.00 0.00 39 1011.2
20260901143204 31 42 1.6 12.9 0.00 0.00 0.00 39 1011.6
20260901141204 31 34 1.6 4.8 0.00 0.00 0.00 37 1011.6
20260901140704 31 28 1.6 4.8 0.00 0.00 0.00 37 1011.6
20260901140204 31 33 1.6 4.8 0.00 0.00 0.00 39 1011.8